Regional Weather Roundup
Issued by NWS

Home | Current Version | Previous Version | Graphics & Text | Print | Product List | Glossary On
Versions: 1 2 3 4 5 6 7 8 9 10 11 12 13 14 15 16 17 18 19 20 21 22 23 24 25 26 27 28 29 30 31 32 33 34 35 36 37 38 39 40 41 42 43 44 45 46 47 48 49 50
771
ASUS45 KBOU 240007
RWRCO

WEATHER ROUNDUP FOR COLORADO
NATIONAL WEATHER SERVICE DENVER/BOULDER CO
600 PM MDT SAT JUL 23 2016

NOTE: "FAIR" INDICATES FEW OR NO CLOUDS BELOW 12000 FEET WITH NO
SIGNIFICANT WEATHER AND/OR OBSTRUCTIONS TO VISIBILITY.

COZ001>005-013-030-031-240100-
...NORTHWEST COLORADO...

CITY           SKY/WX    TMP DP  RH WIND       PRES   REMARKS
CRAIG          FAIR      91  30  11 W12       30.12F
HAYDEN         FAIR      84  37  18 S14G21    30.17S
MEEKER         FAIR      81  48  31 E12       30.17F
MOUNT WERNER   NOT AVBL
STEAMBOAT SPGS FAIR      83  42  23 S10       30.20F
WALDEN         FAIR      77  34  20 S9        30.32F
$$

COZ006>008-011-240100-
...WEST CENTRAL VALLEYS...

CITY           SKY/WX    TMP DP  RH WIND       PRES   REMARKS
GRAND JUNCTION FAIR      97  37  12 CALM      29.99F
MONTROSE       FAIR      91  41  17 NW6       30.11S
EAGLE          MOSUNNY   82  36  18 W17G29    30.22R
RIFLE          FAIR      93  40  15 N9        30.07F
DELTA          FAIR      95  43  16 S8        30.04F
NUCLA          FAIR      90  30  12 S8        30.17S
$$

COZ017>023-064>068-240100-
...SOUTHWEST COLORADO...

CITY           SKY/WX    TMP DP  RH WIND       PRES   REMARKS
DURANGO        PTSUNNY   81  47  30 NE10      30.18S
CORTEZ         FAIR      90  40  17 N21G30    30.12S
PAGOSA SPRINGS FAIR      82  36  19 NW12      30.28F
TELLURIDE      FAIR      74  35  23 NW7       30.44S
WOLF CREEK PAS FAIR      59  34  38 NE15      30.69F
$$

COZ009-010-012-014-032>034-037-058>063-240100-
...CENTRAL COLORADO...

CITY           SKY/WX    TMP DP  RH WIND       PRES   REMARKS
ASPEN          FAIR      83  37  19 NW10      30.28F
BUENA VISTA    LGT RAIN  81  35  19 S5        30.28S
COPPER MTN     FAIR      66  28  24 NW21G30   30.67S
BERTHOUD PASS  FAIR      50  36  57 NE12G24   30.71F
COTTONWOOD PAS FAIR      73  32  21 SE8       30.46F
GUNNISON       FAIR      81  39  22 NW6       30.29S
KREMMLING      FAIR      77  41  27 S5        30.31S
LEADVILLE      FAIR      74  23  15 NW15G21   30.46F
MONARCH PASS   FAIR      68  32  26 MISG      30.76F
SALIDA         FAIR      81  49  33 SW3       30.30F
SUNLIGHT       LGT RAIN  68  37  32 NW3       30.59S
WILKERSON PASS FAIR      64  36  34 SW7       30.62F
$$

COZ069>075-240100-
...SAN LUIS VALLEY/SANGRE DE CRISTO MOUNTAINS...

CITY           SKY/WX    TMP DP  RH WIND       PRES   REMARKS
ALAMOSA        FAIR      80  38  22 W15       30.24F
LA VETA PASS   CLOUDY    64  41  42 N3        30.52S
SAGUACHE       LGT RAIN  81  36  19 S3        30.28S
$$

COZ035-036-038>040-240100-
...NORTHERN COLORADO FRONT RANGE...

CITY           SKY/WX    TMP DP  RH WIND       PRES   REMARKS
DENVER INTL AP PTSUNNY   90  37  15 W36G45    30.05R THUNDER
DMNS CITY PARK   N/A     85  38  18 N9G26     30.06S
AURORA         PTSUNNY   86  38  18 N15G45    30.08R
FRONT RANGE AP PTSUNNY   93  36  13 SW8       30.06R
ERIE MUNI ARPT FAIR      91  36  14 E3        30.04R
BOULDER MUN AP FAIR      88  43  20 CALM      30.06R
CENTENNIAL     PTSUNNY   87  36  16 NW15G21   30.09R
BROOMFIELD     PTSUNNY   84  45  24 E9        30.10R
LONGMONT       FAIR      91  51  25 NW6       30.05R
$$

COZ041-046-047-076>085-087-088-240100-
...PIKES PEAK/PALMER DIVIDE AND SOUTHERN FOOTHILLS...

CITY           SKY/WX    TMP DP  RH WIND       PRES   REMARKS
COLO. SPRINGS  PTSUNNY   76  50  40 SW16      30.21R THUNDER
A. F. ACADEMY  PTSUNNY   82  43  24 SW9       30.19R
SCHRIEVER AFB  NOT AVBL
ELLICOTT       CLOUDY   N/A N/A N/A NW30G44   30.10F SQUALL  THUNDER
FALCON         NOT AVBL
FORT CARSON    LGT RAIN  75  51  43 NW6       30.17R
LIMON          FAIR      91  38  15 E9        30.04F
MONUMENT HILL  TSTM      64  52  63 SW21G28   30.27R
TRINIDAD       NOT AVBL
$$

COZ042>045-048>051-090-091-240100-
...NORTHEAST COLORADO...

CITY           SKY/WX    TMP DP  RH WIND       PRES   REMARKS
GREELEY ARPT   FAIR      88  50  27 NE9       30.01R
AKRON          FAIR      92  51  24 NW6       30.00F
BURLINGTON     FAIR      97  45  16 E8        29.96F
WRAY           NOT AVBL
STERLING       FAIR      77  57  50 N18G29    30.00R
HOLYOKE        FAIR      95  59  30 W8        29.93S
FORT MORGAN    FAIR      88  43  20 N20G31    30.01R
$$

COZ086-089-092>099-240100-
...SOUTHEAST COLORADO...

CITY           SKY/WX    TMP DP  RH WIND       PRES   REMARKS
PUEBLO         FAIR      88  50  27 NW33G49   30.00R
LA JUNTA       FAIR     101  49  17 E6        29.92F
LAMAR          FAIR      92  60  34 NE17G32   29.87S
SPRINGFIELD      N/A     87  55  33 SW15G22   29.96R
$$




USA.gov is the U.S. government's official web portal to all federal, state and local government web resources and services.